This demonstration page uses our WeatherBlox Daily Observations layout. Learn more.

Left ArrowRight Arrow

Hourly Observations for July 9, 2020

Temp ( °F °C ) Dew Point ( °F °C ) Humidity (%) Winds ( mph kmh ) Pressure ( in mb ) Visibility ( mi km ) Precip ( " mm )
12:51 am 00:51 Clear 86 30 47 8.3 26 26 WNW 10 17 29.68 1005 10 16.0934 0 0
1:51 am 01:51 Clear 85 29.4 46 7.8 26 26 WNW 12 19 29.67 1005 10 16.0934 0 0
2:51 am 02:51 Clear 82 27.8 45 7.2 27 27 NNW 9 15 29.69 1005 10 16.0934 0 0
3:51 am 03:51 Clear 86 30 46 7.8 25 25 NW 12 19 29.69 1006 10 16.0934 0 0
4:51 am 04:51 Clear 84 28.9 46 7.8 27 27 NW 10 17 29.72 1006 10 16.0934 0 0
5:51 am 05:51 Sunny 84 28.9 46 7.8 27 27 NNW 9 15 29.74 1007 10 16.0934 0 0
6:51 am 06:51 Sunny 90 32.2 46 7.8 22 22 NW 13 20 29.75 1008 10 16.0934 0 0
7:51 am 07:51 Sunny 92 33.3 47 8.3 21 21 WNW 15 24 29.77 1008 10 16.0934 0 0
8:51 am 08:51 Sunny 95 35 46 7.8 19 19 NW 13 20 29.78 1008 10 16.0934 0 0
9:51 am 09:51 Sunny 98 36.7 47 8.3 17 17 W 16 26 29.76 1008 10 16.0934 0 0
10:51 am 10:51 Sunny 102 38.9 47 8.3 15 15 W 14 22 29.75 1008 10 16.0934 0 0
11:51 am 11:51 Sunny 104 40 48 8.9 15 15 WNW 21 33 29.75 1007 10 16.0934 0 0
12:51 pm 12:51 Sunny 104 40 48 8.9 15 15 NW 16 26 29.73 1007 10 16.0934 0 0
1:51 pm 13:51 Sunny 105 40.6 48 8.9 15 15 WNW 9 15 29.71 1006 10 16.0934 0 0
2:51 pm 14:51 Sunny 109 42.8 48 8.9 13 13 NNW 14 22 29.69 1005 10 16.0934 0 0
3:51 pm 15:51 Sunny 106 41.1 48 8.9 14 14 WNW 14 22 29.67 1005 10 16.0934 0 0
4:51 pm 16:51 Sunny 106 41.1 46 7.8 13 13 WNW 22 35 29.66 1004 10 16.0934 0 0
5:51 pm 17:51 Sunny 104 40 46 7.8 14 14 NW 21 33 29.65 1004 10 16.0934 0 0
6:51 pm 18:51 Sunny 101 38.3 46 7.8 15 15 WNW 21 33 29.67 1005 10 16.0934 0 0
7:51 pm 19:51 Clear 98 36.7 46 7.8 17 17 NW 17 28 29.67 1005 10 16.0934 0 0
8:51 pm 20:51 Clear 95 35 45 7.2 18 18 NW 14 22 29.7 1006 10 16.0934 0 0
9:51 pm 21:51 Clear 91 32.8 46 7.8 21 21 WNW 10 17 29.73 1007 10 16.0934 0 0
10:51 pm 22:51 Clear 90 32.2 46 7.8 22 22 NW 10 17 29.74 1007 10 16.0934 0 0
11:51 pm 23:51 Clear 88 31.1 47 8.3 24 24 NW 9 15 29.75 1008 10 16.0934 0 0

Powered by AerisWeather